Snowfall_Accumulation
nan nan nan nan nan nan nan nan nan nan nan nan nan nan nan nan nan 0.0 0.0 0.0 0.1 2.7 0.6 0.0 0.0 0.2 0.5 0.7 7.7 0.8 9.4 4.9 6.9 11.2 7.3 5.7 2.2 0.6 0.6 0.0 0.0 1.0 3.8 8.3 5.7 11.5 13.5 0.0 0.0 0.0 0.0 0.0 0.0 0.0
nan nan nan nan nan nan nan nan nan nan nan nan nan nan nan nan nan nan 0.0 0.0 0.0 1.0 1.3 0.0 0.0 0.0 0.0 0.0 0.6 0.4 1.6 0.2 2.0 6.0 5.1 3.3 5.3 3.4 0.5 3.4 0.0 1.8 0.3 2.1 0.4 1.6 0.0 0.0 0.0 0.0 0.0 0.0 0.0 0.0
nan nan nan nan nan nan nan nan nan nan nan nan nan nan nan nan nan nan 0.0 0.0 0.1 1.7 0.6 0.4 0.6 0.0 0.0 0.0 0.0 11.5 0.8 0.0 0.3 0.0 1.9 1.4 1.9 0.6 2.8 0.8 0.1 0.0 0.0 1.8 0.9 0.0 0.0 0.0 0.0 0.0 0.0 0.0 0.0 0.0
nan nan nan nan nan nan nan nan nan nan nan nan nan nan nan nan nan nan 0.0 0.0 0.1 1.2 6.4 1.5 0.0 0.1 0.0 0.0 0.0 0.0 0.0 0.0 0.0 0.2 4.4 4.5 3.9 0.1 0.7 0.2 0.5 0.1 0.0 0.0 0.0 0.0 0.0 0.0 0.0 0.0 0.0 0.0 0.0 0.0
nan nan nan nan nan nan nan nan nan nan nan nan nan nan nan nan nan nan 0.0 0.0 0.0 2.1 3.0 1.6 0.0 0.0 0.0 0.0 0.0 0.0 0.0 0.2 1.3 3.9 5.9 4.5 0.2 0.7 0.3 0.3 0.3 0.0 0.0 0.3 0.4 0.0 0.0 0.0 0.0 0.0 0.0 0.0 0.0 0.0
nan nan nan nan nan nan nan nan nan nan nan nan nan nan nan nan nan 0.0 9.3 0.0 0.0 0.0 6.1 5.9 0.2 0.0 0.0 0.0 0.0 0.0 0.0 0.4 0.9 2.1 2.1 0.6 0.0 0.4 3.0 1.0 0.0 0.0 0.0 0.0 0.0 0.0 0.0 0.0 0.0 0.0 0.0 0.0 0.0 0.0
nan nan nan nan nan nan nan nan nan nan nan nan nan nan nan nan 0.0 1.7 0.8 0.0 nan 0.0 5.3 2.8 1.0 0.1 0.0 0.1 0.3 1.1 0.3 1.5 1.2 1.5 1.7 0.3 0.1 0.2 1.2 1.0 0.0 0.0 0.0 0.0 0.0 0.0 0.0 0.0 0.1 0.0 0.0 0.0 0.0 0.0
nan nan nan nan nan nan nan nan nan nan nan nan nan nan nan nan nan 0.3 0.0 nan nan 0.5 1.1 5.0 2.0 0.8 0.0 1.3 2.0 0.2 2.3 2.0 2.2 1.0 0.7 0.5 0.3 0.7 2.2 0.0 0.0 0.0 0.0 0.0 0.0 0.0 0.0 0.0 0.0 0.0 0.0 0.0 0.0 0.0
nan nan nan nan nan nan nan nan nan nan nan nan nan nan 0.0 0.1 0.5 0.0 nan nan 0.0 1.4 5.6 2.9 1.6 7.4 0.0 0.5 0.5 0.9 0.7 6.3 1.1 3.0 1.3 0.6 0.8 2.3 0.0 0.0 0.0 0.0 0.0 0.0 0.0 0.0 0.0 0.0 0.0 0.0 0.0 0.0 0.0 0.0
nan nan nan nan nan nan nan nan nan nan nan nan 0.0 0.4 6.7 0.1 nan nan 0.2 1.8 2.2 2.0 3.4 2.0 0.1 2.1 0.3 0.3 2.5 1.9 2.2 2.2 4.0 1.6 0.4 1.8 0.3 0.0 0.0 0.0 0.0 0.0 0.0 0.0 0.0 0.0 0.0 0.0 0.0 0.0 0.0 0.0 0.0 0.0
nan nan nan nan nan nan nan nan nan nan nan 0.0 0.7 0.5 0.0 nan 0.0 0.3 4.3 2.6 0.8 1.0 0.2 0.3 0.0 0.2 0.0 1.7 1.9 0.6 1.6 1.0 3.8 0.6 1.7 1.6 1.0 0.5 0.3 0.1 0.0 0.0 0.0 0.0 0.0 0.0 0.0 0.0 0.0 0.0 0.0 0.0 0.0 0.0
nan nan nan nan nan nan nan nan nan 0.0 0.0 0.0 0.0 0.0 0.0 0.2 1.8 1.3 2.6 0.7 0.2 0.2 0.4 0.4 0.5 0.1 0.4 0.0 1.3 1.0 0.8 1.6 0.5 0.2 3.7 1.6 1.0 0.0 0.0 0.0 0.0 0.0 0.0 0.0 0.0 0.0 0.0 0.0 0.0 0.0 0.0 0.0 0.0 0.0
nan nan nan nan nan nan nan nan nan nan nan 0.0 0.4 0.4 1.1 1.9 29.0 0.9 2.9 1.5 3.2 0.2 0.3 0.2 3.3 0.5 0.3 0.1 0.8 0.9 3.9 3.7 0.3 10.1 0.9 0.9 0.5 0.0 0.0 0.0 0.0 0.0 0.0 0.0 0.0 0.0 0.0 0.0 0.0 0.1 0.3 0.2 0.3 0.3
nan nan nan nan nan nan nan nan nan 0.0 0.0 0.6 0.4 31.0 3.8 1.2 0.5 0.3 0.4 0.7 0.2 0.1 0.4 0.9 1.0 0.8 0.4 1.3 0.5 1.4 0.3 0.6 5.3 4.2 1.9 1.0 0.3 0.1 0.2 0.2 0.1 0.1 0.1 0.2 0.1 0.0 0.1 0.2 0.2 0.2 1.9 2.4 2.1 1.9
nan nan nan nan nan nan nan nan nan 0.0 0.2 1.6 0.6 12.9 2.3 0.3 0.3 0.4 0.3 0.2 0.1 0.1 0.5 1.8 0.9 0.4 1.0 1.7 0.3 0.2 3.0 2.5 1.5 3.9 1.4 0.8 0.2 0.3 0.5 0.4 0.8 2.2 2.5 1.6 1.3 2.8 4.2 3.3 2.4 3.8 3.4 2.3 1.8 4.4
nan nan 0.0 nan nan nan nan nan 0.0 0.0 0.8 0.4 0.1 0.7 0.4 1.6 3.7 2.3 0.7 0.9 0.1 0.3 0.7 1.2 0.7 1.0 1.1 0.5 0.3 0.6 0.5 3.4 2.9 1.6 0.8 0.3 0.1 0.1 0.2 0.3 0.5 0.8 1.1 2.0 1.3 2.1 4.4 7.2 7.7 7.5 6.9 6.7 8.1 6.9
nan 0.0 nan nan nan nan nan 0.0 0.0 1.3 0.6 0.1 5.8 0.5 1.1 0.7 1.7 0.9 0.6 0.5 0.1 0.9 3.9 0.9 2.0 0.2 0.5 1.5 0.4 1.8 4.7 3.3 1.3 0.8 0.5 0.1 0.3 0.2 0.2 0.2 1.4 0.3 1.2 1.7 2.1 3.0 4.3 4.9 5.5 4.8 6.6 7.1 4.7 4.9
0.0 0.0 nan nan nan nan 0.2 0.0 1.1 0.9 0.4 0.5 6.3 2.5 0.6 0.6 1.6 1.2 0.4 0.3 0.6 0.8 0.9 0.6 0.9 0.5 3.0 0.8 3.2 2.9 1.7 1.0 0.6 0.8 0.7 0.3 0.1 0.3 0.2 0.2 0.3 0.5 0.8 3.2 2.8 3.8 3.8 3.2 2.6 4.1 3.0 3.4 4.2 4.8
0.0 0.0 nan nan 0.0 1.2 2.4 0.6 0.2 2.0 1.7 0.6 0.5 0.4 0.4 1.0 0.7 0.4 0.5 0.4 0.5 0.3 1.8 1.2 0.3 1.3 2.0 1.9 2.2 1.7 1.4 1.0 1.7 2.2 1.7 0.6 0.4 0.8 1.0 0.7 0.5 1.8 2.2 2.7 1.8 3.0 2.7 1.9 2.0 2.3 2.9 2.6 2.7 4.1
nan nan nan nan nan 5.1 3.1 1.8 0.1 0.2 0.8 0.9 0.3 0.5 0.5 0.9 0.9 1.9 1.2 0.6 0.5 1.2 1.5 1.4 1.6 3.1 2.8 1.9 2.3 1.8 1.5 1.2 1.1 2.5 2.7 2.8 2.6 1.0 0.6 1.3 2.5 1.3 2.1 1.2 2.4 1.1 3.1 2.9 2.9 1.4 1.2 2.0 3.4 5.4
nan nan nan 0.0 0.0 0.6 0.8 1.0 0.5 0.3 0.3 0.6 0.4 0.2 1.8 0.6 1.2 2.3 1.5 0.3 3.1 1.8 1.8 1.6 4.6 2.5 1.5 3.4 1.8 1.1 1.1 0.6 1.2 1.7 1.9 5.3 2.7 1.2 1.5 1.5 0.9 1.0 0.9 2.1 3.1 4.1 2.1 2.6 2.2 1.6 6.2 7.9 4.6 3.8
0.0 nan 0.2 0.0 2.4 2.3 3.7 0.1 0.2 0.4 0.7 0.3 0.4 0.2 1.7 6.5 5.9 2.8 0.5 2.7 3.0 3.4 1.9 2.8 3.1 2.5 1.8 1.7 2.6 0.8 1.3 0.4 0.3 0.7 0.4 0.6 2.8 1.7 1.9 1.6 1.1 2.0 1.8 2.3 1.5 4.0 2.8 1.5 1.8 2.3 4.8 7.4 2.3 2.9
nan 0.3 0.9 0.4 4.3 7.4 16.4 0.1 0.4 0.2 2.2 0.9 0.4 0.8 2.2 2.0 1.3 0.1 5.1 1.6 4.7 3.6 2.5 1.9 1.4 2.4 2.7 1.9 1.1 0.5 0.9 0.7 2.6 3.4 2.5 2.1 1.5 1.4 1.2 1.7 1.0 2.8 2.7 2.1 1.0 1.9 2.8 1.7 2.4 6.9 4.3 4.9 5.2 12.0
nan 2.7 6.4 3.8 3.9 14.3 0.4 4.8 0.4 0.6 0.5 1.2 1.5 2.3 0.4 2.0 0.5 3.6 5.8 6.7 6.2 1.4 1.6 1.5 1.4 3.1 3.0 2.2 4.0 4.5 4.6 2.5 2.7 2.9 2.6 2.6 2.0 2.4 1.3 1.7 1.1 1.1 1.3 1.3 1.3 2.4 2.7 7.4 5.0 2.8 8.2 15.3 18.0 16.7
20.6 24.4 7.8 36.2 2.7 10.5 6.9 3.9 1.6 1.3 6.5 5.4 4.6 5.5 14.5 2.1 11.7 9.0 4.0 8.6 5.0 5.1 4.7 3.0 2.6 2.2 2.4 3.6 3.8 5.3 4.5 4.9 6.0 6.4 5.9 3.7 2.9 2.9 2.9 1.8 2.4 2.0 1.5 4.8 8.3 9.9 10.3 9.6 10.2 9.3 5.6 17.8 6.3 7.3
38.4 13.1 27.1 5.4 12.9 7.1 5.8 9.8 10.5 10.0 5.1 6.5 5.6 2.9 1.8 5.9 8.1 13.8 8.9 11.8 10.4 7.6 19.4 15.2 10.0 4.1 4.1 3.4 3.6 3.9 4.8 4.5 4.3 5.3 7.6 5.8 6.8 7.6 9.0 8.0 6.7 6.2 2.9 4.1 8.3 13.6 9.8 10.7 12.0 5.8 11.3 5.0 6.5 14.6
34.1 16.5 1.2 0.3 0.5 0.3 7.9 5.5 1.2 4.2 7.6 10.8 6.1 7.3 8.8 18.5 15.7 8.1 4.9 4.4 5.1 7.4 4.2 3.9 4.0 4.4 5.1 4.4 3.9 4.1 3.3 3.2 3.4 6.5 5.5 6.5 6.8 7.6 8.9 14.0 10.4 7.3 4.3 5.6 7.1 14.3 14.6 13.9 14.5 9.4 12.3 12.1 12.8 14.8
4.4 2.0 12.0 4.7 7.4 0.8 7.0 4.6 6.3 7.8 4.2 1.8 5.7 11.1 12.8 12.6 11.2 9.1 6.9 6.7 7.7 2.9 2.4 2.3 2.0 2.5 3.0 3.9 4.9 5.6 4.5 4.7 5.7 5.3 3.8 3.7 4.5 9.5 9.4 8.2 7.3 7.2 8.7 14.3 14.8 15.9 11.1 15.5 16.8 16.3 14.7 15.7 19.7 14.5
7.2 2.5 3.0 15.4 6.7 4.9 9.8 9.9 7.7 3.0 1.1 2.9 14.0 11.0 9.3 5.4 11.7 8.6 7.7 7.0 5.9 5.4 5.9 7.2 10.1 9.8 5.4 4.0 6.9 5.2 7.4 8.8 7.0 10.6 12.1 15.1 13.1 12.5 8.1 9.0 9.2 11.2 11.0 12.4 8.0 9.8 11.6 13.8 15.0 16.2 12.5 18.3 16.9 18.7
6.5 1.7 7.3 9.0 12.3 8.4 17.8 10.4 13.6 10.4 0.9 3.4 1.7 1.8 2.9 9.8 15.4 8.0 9.2 7.9 9.9 19.9 27.1 21.7 20.1 17.5 26.8 19.8 17.4 11.6 10.9 13.9 12.9 20.0 23.0 18.0 16.1 14.2 15.5 16.2 15.0 13.8 13.8 24.3 18.3 11.9 9.8 17.0 14.3 22.7 20.4 19.3 19.6 22.2
1.7 6.2 9.2 5.3 12.1 20.1 18.1 17.7 18.0 9.7 9.4 15.3 16.5 18.5 14.4 11.8 14.6 9.5 8.0 11.2 11.3 30.1 31.1 33.5 32.5 31.0 27.3 19.3 28.4 26.6 20.6 25.9 12.5 9.0 8.4 12.6 16.9 20.2 19.5 16.6 16.0 17.2 17.9 17.7 22.8 21.0 23.5 27.6 24.9 22.5 17.6 14.3 16.4 17.1
9.8 15.2 18.6 11.2 15.1 24.7 13.3 26.2 20.4 18.1 24.2 23.4 28.6 23.4 29.1 25.7 18.2 14.5 15.4 21.6 25.5 27.9 9.1 24.2 33.7 18.2 16.7 15.0 22.4 17.7 10.1 13.4 14.0 14.2 12.4 17.6 20.3 22.8 14.0 11.4 22.3 20.4 16.8 19.0 17.3 19.7 17.6 25.5 27.8 28.2 22.8 19.5 18.1 16.2
25.2 18.2 13.0 12.6 26.1 14.7 17.5 20.1 5.3 20.0 18.6 23.4 27.2 24.6 24.7 22.0 17.7 21.0 8.7 19.9 23.7 25.3 22.2 28.3 29.3 32.6 19.3 16.3 15.7 16.9 12.1 15.7 14.3 10.6 9.3 9.3 9.3 10.6 17.8 23.8 26.4 21.8 13.6 18.9 20.8 19.5 17.6 15.2 19.6 21.6 24.2 28.2 24.8 20.0
Water_Equivalent
nan nan nan nan nan nan nan nan nan nan nan nan nan nan nan nan nan 0.00 0.00 0.00 0.02 0.67 0.19 0.00 0.00 0.05 0.17 0.21 1.43 0.20 1.47 1.05 1.63 2.12 1.37 1.23 0.52 0.18 0.14 0.01 0.01 0.25 0.79 1.55 1.12 1.93 1.60 0.00 0.00 0.00 0.00 0.00 0.00 0.00
nan nan nan nan nan nan nan nan nan nan nan nan nan nan nan nan nan nan 0.00 0.00 0.00 0.34 0.34 0.00 0.00 0.00 0.00 0.00 0.16 0.08 0.27 0.04 0.51 1.17 0.94 0.68 1.02 0.69 0.09 0.54 0.00 0.39 0.08 0.44 0.10 0.40 0.00 0.00 0.00 0.00 0.00 0.00 0.00 0.00
nan nan nan nan nan nan nan nan nan nan nan nan nan nan nan nan nan nan 0.00 0.00 0.02 0.53 0.17 0.10 0.18 0.00 0.00 0.00 0.00 1.99 0.20 0.01 0.06 0.01 0.43 0.32 0.32 0.15 0.60 0.19 0.02 0.00 0.00 0.32 0.15 0.00 0.00 0.00 0.00 0.00 0.00 0.00 0.00 0.00
nan nan nan nan nan nan nan nan nan nan nan nan nan nan nan nan nan nan 0.00 0.00 0.02 0.33 1.28 0.33 0.00 0.02 0.00 0.00 0.00 0.00 0.00 0.00 0.00 0.04 0.92 0.89 0.73 0.04 0.17 0.05 0.12 0.02 0.01 0.00 0.01 0.00 0.00 0.00 0.00 0.00 0.00 0.00 0.00 0.00
nan nan nan nan nan nan nan nan nan nan nan nan nan nan nan nan nan nan 0.00 0.00 0.00 0.39 0.64 0.39 0.00 0.00 0.00 0.00 0.00 0.00 0.00 0.04 0.27 0.78 1.23 0.84 0.05 0.17 0.07 0.07 0.10 0.00 0.00 0.10 0.12 0.00 0.00 0.00 0.00 0.00 0.00 0.00 0.00 0.00
nan nan nan nan nan nan nan nan nan nan nan nan nan nan nan nan nan 0.00 3.47 0.00 0.00 0.00 1.20 1.12 0.05 0.01 0.01 0.01 0.00 0.00 0.00 0.11 0.20 0.45 0.44 0.15 0.00 0.08 0.60 0.20 0.00 0.00 0.00 0.00 0.00 0.00 0.00 0.00 0.00 0.00 0.00 0.00 0.00 0.00
nan nan nan nan nan nan nan nan nan nan nan nan nan nan nan nan 0.00 0.55 0.18 0.00 nan 0.00 1.11 0.57 0.26 0.02 0.00 0.02 0.09 0.32 0.08 0.41 0.28 0.32 0.34 0.07 0.02 0.06 0.28 0.19 0.00 0.00 0.00 0.00 0.00 0.00 0.00 0.00 0.03 0.00 0.00 0.00 0.00 0.00
nan nan nan nan nan nan nan nan nan nan nan nan nan nan nan nan nan 0.09 0.00 nan nan 0.12 0.23 1.10 0.49 0.25 0.00 0.33 0.46 0.04 0.51 0.45 0.49 0.22 0.15 0.09 0.06 0.15 0.38 0.00 0.00 0.00 0.00 0.00 0.00 0.00 0.00 0.00 0.00 0.00 0.00 0.00 0.00 0.00
nan nan nan nan nan nan nan nan nan nan nan nan nan nan 0.00 0.05 0.21 0.00 nan nan 0.00 0.32 1.14 0.71 0.37 1.73 0.00 0.12 0.14 0.20 0.17 1.23 0.23 0.62 0.27 0.12 0.16 0.39 0.00 0.00 0.00 0.00 0.00 0.00 0.00 0.00 0.00 0.00 0.00 0.00 0.00 0.00 0.00 0.00
nan nan nan nan nan nan nan nan nan nan nan nan 0.00 0.15 2.57 0.04 nan nan 0.09 0.67 0.70 0.52 0.73 0.44 0.02 0.50 0.09 0.09 0.55 0.38 0.45 0.43 0.75 0.31 0.08 0.36 0.06 0.00 0.00 0.00 0.00 0.00 0.00 0.00 0.00 0.02 0.00 0.00 0.00 0.00 0.00 0.00 0.00 0.00
nan nan nan nan nan nan nan nan nan nan nan 0.01 0.27 0.20 0.00 nan 0.00 0.09 1.32 0.70 0.21 0.26 0.05 0.08 0.00 0.06 0.00 0.39 0.44 0.12 0.40 0.25 0.73 0.10 0.31 0.29 0.20 0.09 0.05 0.01 0.00 0.00 0.00 0.00 0.00 0.00 0.00 0.00 0.00 0.00 0.00 0.00 0.00 0.00
nan nan nan nan nan nan nan nan nan 0.00 0.00 0.00 0.00 0.00 0.00 0.08 0.55 0.33 0.76 0.21 0.05 0.05 0.11 0.11 0.14 0.04 0.12 0.00 0.29 0.27 0.16 0.34 0.07 0.05 0.85 0.34 0.22 0.01 0.00 0.01 0.00 0.00 0.00 0.00 0.00 0.00 0.00 0.00 0.00 0.00 0.00 0.00 0.00 0.00
nan nan nan nan nan nan nan nan nan nan nan 0.00 0.11 0.10 0.30 0.66 5.36 0.27 0.73 0.33 1.03 0.07 0.11 0.06 1.04 0.13 0.09 0.03 0.24 0.26 1.01 1.05 0.07 2.58 0.22 0.18 0.09 0.01 0.00 0.00 0.00 0.00 0.00 0.00 0.00 0.00 0.00 0.00 0.00 0.02 0.07 0.05 0.08 0.08
nan nan nan nan nan nan nan nan nan 0.00 0.00 0.19 0.11 4.95 1.30 0.41 0.17 0.10 0.10 0.14 0.06 0.04 0.09 0.19 0.25 0.20 0.12 0.30 0.17 0.43 0.13 0.20 1.41 0.84 0.40 0.22 0.07 0.03 0.04 0.04 0.03 0.04 0.01 0.04 0.02 0.00 0.02 0.04 0.04 0.06 0.54 0.64 0.46 0.38
nan nan nan nan nan nan nan nan nan 0.00 0.07 0.43 0.16 2.68 0.75 0.13 0.13 0.15 0.10 0.07 0.03 0.05 0.15 0.48 0.23 0.11 0.27 0.50 0.12 0.09 0.94 0.84 0.42 0.71 0.31 0.21 0.04 0.08 0.09 0.09 0.16 0.45 0.58 0.35 0.30 0.71 1.05 0.73 0.45 0.71 0.70 0.47 0.35 0.93
nan nan 0.00 nan nan nan nan nan 0.00 0.01 0.25 0.12 0.04 0.24 0.14 0.52 1.42 0.90 0.28 0.35 0.05 0.09 0.18 0.34 0.18 0.23 0.31 0.19 0.07 0.22 0.11 0.70 0.56 0.35 0.20 0.10 0.02 0.03 0.05 0.07 0.10 0.16 0.23 0.41 0.28 0.40 0.90 1.45 1.54 1.38 1.37 1.30 1.74 1.46
nan 0.00 nan nan nan nan nan 0.00 0.00 0.24 0.16 0.01 1.86 0.19 0.35 0.23 0.63 0.33 0.18 0.14 0.02 0.26 1.29 0.26 0.47 0.03 0.15 0.35 0.07 0.32 0.97 0.61 0.29 0.20 0.12 0.02 0.07 0.05 0.05 0.05 0.31 0.08 0.27 0.36 0.43 0.58 0.82 0.95 1.05 0.83 1.06 1.21 0.84 0.89
0.00 0.00 nan nan nan nan 0.06 0.00 0.33 0.25 0.06 0.19 1.71 0.77 0.22 0.21 0.48 0.36 0.15 0.10 0.17 0.21 0.23 0.12 0.20 0.09 0.81 0.14 0.69 0.58 0.39 0.28 0.15 0.20 0.19 0.09 0.03 0.06 0.04 0.04 0.07 0.10 0.16 0.64 0.55 0.72 0.73 0.58 0.45 0.76 0.53 0.61 0.72 0.81
0.00 0.00 nan nan 0.00 0.26 0.63 0.18 0.06 0.47 0.52 0.20 0.19 0.14 0.14 0.35 0.24 0.16 0.20 0.17 0.15 0.10 0.41 0.27 0.06 0.30 0.46 0.39 0.50 0.43 0.37 0.24 0.37 0.53 0.42 0.14 0.10 0.19 0.23 0.14 0.10 0.34 0.41 0.51 0.34 0.61 0.56 0.35 0.37 0.46 0.56 0.51 0.52 0.76
nan nan nan nan nan 1.14 0.62 0.44 0.03 0.06 0.24 0.28 0.12 0.17 0.17 0.29 0.26 0.77 0.47 0.22 0.16 0.32 0.36 0.31 0.35 0.61 0.55 0.40 0.48 0.42 0.34 0.30 0.24 0.50 0.61 0.68 0.66 0.22 0.15 0.27 0.55 0.27 0.44 0.24 0.51 0.25 0.61 0.57 0.56 0.32 0.29 0.42 0.71 1.00
nan nan nan 0.00 0.01 0.15 0.20 0.26 0.11 0.09 0.13 0.18 0.13 0.08 0.52 0.17 0.34 0.71 0.44 0.09 0.85 0.46 0.38 0.36 1.01 0.57 0.29 0.72 0.40 0.25 0.24 0.13 0.28 0.30 0.38 0.84 0.67 0.34 0.40 0.41 0.27 0.27 0.25 0.45 0.71 0.84 0.47 0.56 0.50 0.40 1.81 2.31 1.32 1.01
0.00 nan 0.03 0.01 0.56 0.53 0.86 0.02 0.07 0.11 0.20 0.13 0.14 0.08 0.51 1.98 1.77 0.82 0.13 0.66 0.57 0.64 0.41 0.55 0.61 0.53 0.38 0.31 0.52 0.12 0.20 0.07 0.05 0.19 0.08 0.14 0.57 0.40 0.44 0.41 0.29 0.51 0.44 0.61 0.37 0.95 0.63 0.36 0.47 0.61 1.34 2.22 0.68 0.85
nan 0.07 0.20 0.09 0.88 1.26 2.21 0.03 0.08 0.06 0.56 0.30 0.14 0.24 0.65 0.58 0.34 0.01 1.11 0.30 0.78 0.75 0.51 0.39 0.24 0.39 0.47 0.31 0.16 0.07 0.15 0.11 0.47 0.61 0.52 0.44 0.35 0.38 0.33 0.39 0.29 0.76 0.68 0.46 0.26 0.47 0.66 0.51 0.68 2.01 1.30 1.39 1.42 3.19
nan 0.43 1.50 0.99 0.70 2.86 0.15 1.38 0.11 0.16 0.15 0.35 0.39 0.54 0.10 0.39 0.13 0.75 0.99 1.02 0.93 0.31 0.32 0.23 0.32 0.60 0.53 0.29 0.59 0.63 0.69 0.40 0.42 0.49 0.44 0.44 0.40 0.50 0.29 0.35 0.30 0.28 0.29 0.28 0.33 0.63 0.69 2.09 1.61 0.76 2.28 4.37 5.21 4.32
3.11 4.03 2.05 4.09 0.80 2.46 1.75 1.10 0.37 0.30 1.28 1.21 0.87 1.09 2.50 0.43 1.71 1.27 0.55 1.06 0.71 0.77 0.71 0.54 0.44 0.39 0.40 0.60 0.59 0.69 0.49 0.62 0.76 0.77 0.77 0.55 0.49 0.53 0.52 0.37 0.43 0.38 0.34 1.37 2.10 2.69 2.73 2.59 2.81 2.57 1.48 4.90 1.49 1.84
4.83 3.75 3.50 1.41 2.83 1.55 1.08 1.74 1.84 2.02 1.07 1.31 1.21 0.62 0.48 1.22 1.29 1.63 0.97 1.48 1.54 0.99 3.41 2.60 1.56 0.62 0.52 0.49 0.51 0.46 0.57 0.59 0.65 0.61 0.84 0.68 0.80 1.21 1.51 1.28 1.05 0.99 0.53 1.02 2.07 3.63 2.54 2.85 3.20 1.48 2.96 1.38 2.01 4.00
4.22 3.61 0.31 0.08 0.13 0.08 1.77 1.56 0.32 1.01 1.36 1.81 1.12 1.46 1.74 2.70 2.24 0.95 0.58 0.59 0.60 0.93 0.63 0.60 0.61 0.60 0.64 0.56 0.54 0.58 0.50 0.52 0.45 0.73 0.72 0.72 0.73 0.79 1.21 2.28 1.39 1.01 0.66 1.17 1.85 4.10 4.08 3.81 3.98 2.43 3.15 3.35 3.61 4.03
0.92 0.46 1.71 1.28 1.85 0.25 1.47 0.99 1.25 1.46 0.90 0.37 1.03 1.74 2.14 1.96 1.25 1.03 0.78 0.84 1.03 0.47 0.40 0.37 0.34 0.37 0.42 0.52 0.64 0.79 0.80 0.81 1.00 0.81 0.62 0.58 0.63 1.25 1.20 1.12 1.03 2.38 1.43 2.93 3.52 3.84 2.80 4.26 4.58 4.52 3.88 3.98 4.46 3.80
1.32 0.64 0.74 1.89 1.10 1.05 1.57 1.73 1.39 0.58 0.26 0.69 2.78 1.50 1.25 0.62 1.44 0.99 0.83 0.81 0.94 0.85 0.87 1.09 1.42 1.82 0.91 0.71 1.16 0.87 1.25 1.52 1.27 1.58 2.04 2.17 2.15 1.99 1.24 1.47 1.59 2.11 1.98 2.24 2.62 2.65 2.56 3.08 3.57 3.96 3.75 4.59 4.30 4.70
1.10 0.49 1.45 1.47 1.43 1.16 2.64 1.68 2.26 1.73 0.17 0.59 0.33 0.29 0.37 1.05 1.64 1.10 1.15 1.03 1.35 3.23 4.90 3.78 3.45 3.23 4.74 3.28 2.70 1.94 2.10 2.86 2.45 3.44 3.72 2.71 2.36 2.19 2.58 3.16 3.04 2.87 2.86 5.55 3.37 1.76 2.78 3.53 3.79 4.95 4.19 3.69 3.98 4.28
0.46 1.66 2.00 1.12 1.81 3.49 3.12 3.52 3.56 1.76 1.87 3.05 3.23 3.40 2.16 1.47 1.78 1.17 0.95 1.47 1.54 5.66 6.04 6.29 6.08 6.30 4.89 3.02 5.05 4.50 3.02 4.68 1.91 1.38 1.36 2.12 2.64 3.61 3.79 3.28 3.34 3.75 3.95 3.71 4.73 3.53 3.46 4.23 4.39 4.33 3.09 2.64 2.70 2.73
2.19 3.56 2.83 1.56 2.39 4.60 2.47 5.66 4.35 3.78 4.88 4.38 5.14 4.32 4.96 4.01 2.31 1.71 1.84 3.09 4.01 4.67 2.73 3.80 5.85 2.57 2.48 2.28 4.00 3.09 3.17 1.84 1.88 1.89 1.97 2.62 3.30 3.82 2.40 1.96 4.52 4.47 3.57 3.93 3.31 3.53 2.99 3.93 3.97 4.17 3.51 3.09 2.81 2.45
5.38 3.82 2.49 2.20 4.78 2.74 3.07 4.03 1.05 3.65 3.19 3.80 4.42 3.84 3.96 3.17 2.04 2.54 0.97 2.71 3.63 3.82 3.13 4.42 4.69 5.61 2.91 2.55 2.29 2.47 2.88 2.13 2.68 3.49 3.08 3.08 3.07 2.96 2.71 4.03 4.84 3.73 2.26 3.15 3.50 3.15 2.79 2.18 2.44 2.84 2.97 3.36 3.13 2.77
SL_Ratio
nan nan nan nan nan nan nan nan nan nan nan nan nan nan nan nan nan nan nan nan 4.1 4.0 3.3 nan nan 3.9 3.2 3.5 5.3 3.9 6.4 4.7 4.2 5.3 5.3 4.7 4.3 3.5 4.2 3.3 3.6 4.0 4.9 5.3 5.1 6.0 8.4 nan nan 4.0 3.6 nan nan nan
nan nan nan nan nan nan nan nan nan nan nan nan nan nan nan nan nan nan nan nan nan 2.9 3.9 nan nan nan nan nan 3.6 4.5 6.0 4.6 4.0 5.2 5.4 4.8 5.2 4.9 5.6 6.3 nan 4.7 4.1 4.7 4.2 4.0 nan nan nan nan nan nan nan nan
nan nan nan nan nan nan nan nan nan nan nan nan nan nan nan nan nan nan nan nan 2.7 3.2 3.7 4.3 3.2 nan nan nan nan 5.8 3.9 3.5 4.4 3.1 4.4 4.3 5.9 4.3 4.7 4.3 3.8 10.0 nan 5.8 5.8 0.0 nan nan nan nan nan nan nan nan
nan nan nan nan nan nan nan nan nan nan nan nan nan nan nan nan nan nan nan nan 2.5 3.6 5.0 4.6 nan 3.3 nan nan nan nan nan 5.0 5.0 4.6 4.8 5.0 5.4 3.9 4.0 3.6 4.1 3.2 2.6 4.0 2.5 nan nan nan nan nan nan nan nan nan
nan nan nan nan nan nan nan nan nan nan nan nan nan nan nan nan nan nan nan nan nan 5.5 4.7 4.0 nan nan nan nan nan nan nan 3.9 4.8 4.9 4.8 5.3 3.8 4.3 4.2 3.8 3.5 3.3 5.0 2.9 3.0 nan nan nan nan nan nan nan nan nan
nan nan nan nan nan nan nan nan nan nan nan nan nan nan nan nan nan nan 2.7 nan nan nan 5.1 5.3 3.8 3.6 2.9 3.0 0.0 5.0 nan 3.8 4.3 4.6 4.6 4.4 0.0 4.6 5.0 4.8 nan nan nan nan nan nan nan nan nan nan nan nan nan nan
nan nan nan nan nan nan nan nan nan nan nan nan nan nan nan nan nan 3.1 4.2 2.5 nan nan 4.7 4.9 4.0 3.8 3.3 3.6 3.6 3.5 3.6 3.6 4.4 4.6 4.9 4.5 4.7 4.0 4.4 5.2 nan nan nan nan nan nan 2.9 nan 2.6 nan nan nan nan nan
nan nan nan nan nan nan nan nan nan nan nan nan nan nan nan nan nan 3.5 nan nan nan 4.0 4.7 4.6 4.1 3.2 nan 4.1 4.3 3.8 4.4 4.5 4.5 4.6 4.8 4.8 4.2 4.7 5.8 nan nan nan nan nan nan nan nan nan nan nan nan nan nan nan
nan nan nan nan nan nan nan nan nan nan nan nan nan nan nan 2.5 2.5 2.5 nan nan nan 4.3 4.9 4.0 4.2 4.3 nan 3.9 4.0 4.4 4.1 5.1 4.6 4.9 4.9 4.8 5.0 5.8 4.3 nan nan nan nan nan nan nan nan nan nan nan nan nan nan nan
nan nan nan nan nan nan nan nan nan nan nan nan nan 2.5 2.6 2.5 nan nan 2.5 2.7 3.1 3.9 4.8 4.6 5.3 4.2 3.8 3.8 4.6 4.9 5.0 5.2 5.3 5.1 5.1 5.0 5.0 nan nan nan nan nan nan nan 0.0 2.6 0.0 0.0 nan nan nan nan nan nan
nan nan nan nan nan nan nan nan nan nan nan 2.6 2.7 2.5 nan nan 5.0 3.0 3.2 3.7 3.7 4.0 3.4 3.4 nan 3.2 nan 4.2 4.3 4.6 4.1 4.1 5.2 5.4 5.4 5.6 5.0 5.5 5.9 5.1 nan nan nan nan nan nan nan nan nan nan nan nan nan nan
nan nan nan nan nan nan nan nan nan nan nan nan nan nan nan 2.7 3.4 4.1 3.4 3.1 3.3 3.9 3.5 3.1 3.4 3.4 3.8 nan 4.5 3.9 4.6 4.8 7.1 4.6 4.4 4.7 4.8 2.7 nan 3.1 nan nan nan nan nan nan nan nan nan nan nan nan nan 3.3
nan nan nan nan nan nan nan nan nan nan nan nan 3.5 3.7 3.6 2.9 5.4 3.4 4.0 4.7 3.1 2.7 2.9 2.7 3.1 3.5 3.4 3.6 3.4 3.5 3.8 3.5 3.6 3.9 4.3 5.1 5.7 3.0 3.8 nan nan nan nan 6.0 nan nan nan nan nan 4.3 4.4 4.3 3.9 4.3
nan nan nan nan nan nan nan nan nan nan nan 3.4 3.7 6.3 2.9 2.9 3.1 2.6 4.0 4.9 2.8 2.7 4.0 4.6 3.8 4.0 3.3 4.2 3.1 3.3 2.6 3.1 3.7 5.0 4.7 4.7 5.0 3.8 4.7 4.5 4.1 4.0 4.4 4.5 4.0 4.0 3.4 3.8 4.5 3.7 3.5 3.8 4.6 4.9
nan nan nan nan nan nan nan nan nan nan 2.7 3.7 3.7 4.8 3.1 2.6 2.5 2.6 2.5 2.5 2.5 3.1 3.4 3.8 3.7 3.9 3.6 3.3 2.7 2.9 3.2 3.0 3.5 5.5 4.5 3.8 4.2 4.2 4.9 4.9 5.0 4.8 4.4 4.5 4.5 4.0 4.0 4.6 5.3 5.3 4.8 4.9 5.1 4.8
nan nan nan nan nan nan nan nan nan 2.4 3.4 3.4 3.5 3.0 2.7 3.1 2.6 2.5 2.6 2.5 3.1 3.3 3.6 3.6 3.8 4.3 3.4 2.9 3.8 2.9 4.3 4.8 5.2 4.5 3.9 3.7 4.6 4.8 5.0 4.8 4.7 4.9 4.9 4.9 4.8 5.2 4.9 5.0 5.0 5.5 5.1 5.2 4.6 4.7
nan 3.3 nan nan nan nan nan 5.0 nan 5.2 3.4 4.7 3.1 2.6 3.3 2.9 2.8 2.7 3.5 3.5 2.6 3.4 3.0 3.5 4.2 5.6 3.5 4.4 5.9 5.5 4.8 5.3 4.5 3.9 3.6 4.9 5.2 4.9 4.0 4.0 4.4 4.3 4.6 4.7 5.0 5.1 5.2 5.2 5.2 5.8 6.2 5.8 5.6 5.5
nan nan nan nan nan nan 2.5 nan 3.4 3.6 5.8 2.9 3.7 3.2 2.7 2.7 3.4 3.4 2.6 2.5 3.3 3.8 3.7 4.8 4.4 4.9 3.7 6.0 4.6 5.0 4.3 3.7 3.7 3.9 3.8 3.6 4.4 4.3 4.5 4.7 4.7 5.1 4.9 5.0 5.2 5.3 5.2 5.5 5.8 5.4 5.7 5.7 5.9 5.9
nan nan nan nan 0.0 4.7 3.8 3.6 3.4 4.3 3.3 2.8 2.9 2.6 2.6 2.9 3.0 2.6 2.5 2.5 3.4 3.0 4.3 4.5 4.2 4.2 4.4 5.0 4.4 4.0 3.8 4.2 4.6 4.1 4.1 4.0 3.9 4.2 4.4 4.8 4.8 5.2 5.3 5.3 5.2 4.9 4.9 5.5 5.3 5.0 5.2 5.0 5.1 5.3
nan nan nan nan nan 4.4 5.0 4.1 4.3 4.1 3.3 3.2 2.7 2.9 2.9 3.2 3.3 2.5 2.5 2.9 3.3 3.8 4.1 4.4 4.6 5.0 5.1 4.8 4.8 4.4 4.4 4.0 4.4 4.9 4.4 4.2 3.9 4.6 4.0 4.7 4.6 4.7 4.8 5.1 4.6 4.3 5.0 5.1 5.2 4.4 4.3 4.8 4.8 5.4
nan nan nan nan 3.3 4.0 4.1 3.9 4.3 2.9 2.6 3.2 2.7 2.7 3.4 3.6 3.5 3.3 3.3 3.0 3.6 4.1 4.7 4.5 4.6 4.5 5.2 4.7 4.5 4.5 4.6 4.7 4.5 5.5 5.0 6.3 4.0 3.6 3.7 3.6 3.5 3.5 3.8 4.7 4.4 4.9 4.5 4.6 4.4 4.1 3.4 3.4 3.5 3.8
5.0 nan 4.8 3.3 4.2 4.3 4.3 2.6 3.2 3.5 3.7 2.6 2.8 2.8 3.2 3.3 3.3 3.4 3.9 4.2 5.3 5.3 4.7 5.1 5.1 4.8 4.8 5.4 5.0 6.5 6.7 6.2 5.6 3.9 4.2 4.0 4.9 4.2 4.3 3.8 3.9 4.0 4.0 3.8 4.0 4.3 4.5 4.2 3.8 3.8 3.6 3.3 3.4 3.5
nan 4.8 4.2 4.0 4.9 5.9 7.4 2.8 4.7 2.7 3.9 3.0 3.1 3.4 3.4 3.4 3.7 4.4 4.6 5.2 6.0 4.8 4.8 4.9 5.6 6.3 5.9 6.1 7.0 6.4 6.1 7.1 5.6 5.6 4.7 4.7 4.2 3.8 3.7 4.3 3.5 3.6 4.1 4.5 3.9 4.1 4.3 3.3 3.5 3.4 3.3 3.5 3.6 3.8
nan 6.3 4.3 3.8 5.6 5.0 2.9 3.5 3.9 4.0 3.5 3.4 3.8 4.4 4.2 5.0 3.8 4.7 5.9 6.5 6.7 4.6 5.1 6.5 4.4 5.2 5.7 7.6 6.8 7.2 6.7 6.2 6.4 6.0 5.9 5.9 5.1 4.8 4.4 4.8 3.7 3.8 4.4 4.5 3.9 3.7 3.9 3.5 3.1 3.6 3.6 3.5 3.4 3.9
6.6 6.1 3.8 8.8 3.4 4.3 3.9 3.5 4.3 4.5 5.1 4.4 5.3 5.0 5.8 4.9 6.8 7.1 7.3 8.1 7.0 6.6 6.5 5.6 5.9 5.6 6.1 6.0 6.5 7.7 9.1 7.9 7.8 8.2 7.6 6.8 5.8 5.4 5.6 5.0 5.4 5.3 4.5 3.5 3.9 3.7 3.8 3.7 3.6 3.6 3.8 3.6 4.2 3.9
8.0 3.5 7.7 3.8 4.5 4.5 5.3 5.6 5.7 4.9 4.8 5.0 4.6 4.7 3.8 4.8 6.3 8.5 9.2 8.0 6.7 7.6 5.7 5.9 6.4 6.6 7.8 6.9 7.1 8.4 8.4 7.5 6.6 8.5 9.1 8.6 8.5 6.3 6.0 6.2 6.3 6.2 5.5 4.0 4.0 3.7 3.9 3.8 3.8 3.9 3.8 3.6 3.2 3.6
8.1 4.6 4.0 3.6 3.7 3.9 4.5 3.5 3.8 4.2 5.6 6.0 5.5 5.0 5.0 6.9 7.0 8.5 8.4 7.5 8.5 7.9 6.7 6.5 6.6 7.3 8.0 7.8 7.3 7.1 6.6 6.3 7.6 9.0 7.7 8.9 9.4 9.6 7.4 6.1 7.5 7.2 6.5 4.8 3.8 3.5 3.6 3.7 3.6 3.9 3.9 3.6 3.5 3.7
4.7 4.3 7.0 3.7 4.0 3.1 4.8 4.7 5.1 5.4 4.6 5.0 5.5 6.4 6.0 6.4 9.0 8.8 8.9 8.0 7.5 6.2 6.1 6.0 5.9 6.9 7.3 7.7 7.6 7.1 5.6 5.8 5.7 6.6 6.2 6.4 7.1 7.7 7.8 7.3 7.1 3.0 6.1 4.9 4.2 4.2 4.0 3.6 3.7 3.6 3.8 3.9 4.4 3.8
5.5 3.8 4.0 8.1 6.1 4.7 6.3 5.7 5.5 5.2 4.3 4.2 5.0 7.3 7.5 8.8 8.1 8.7 9.3 8.6 6.3 6.3 6.8 6.7 7.1 5.4 6.0 5.6 5.9 5.9 5.9 5.8 5.5 6.7 5.9 7.0 6.1 6.3 6.5 6.1 5.8 5.3 5.5 5.5 3.0 3.7 4.5 4.5 4.2 4.1 3.3 4.0 3.9 4.0
5.9 3.6 5.0 6.2 8.6 7.3 6.7 6.2 6.0 6.0 5.1 5.8 5.1 6.4 7.9 9.3 9.4 7.2 8.0 7.7 7.3 6.1 5.5 5.7 5.8 5.4 5.7 6.0 6.4 6.0 5.2 4.8 5.3 5.8 6.2 6.6 6.8 6.5 6.0 5.1 4.9 4.8 4.8 4.4 5.4 6.8 3.5 4.8 3.8 4.6 4.9 5.2 4.9 5.2
3.7 3.8 4.6 4.7 6.7 5.7 5.8 5.0 5.1 5.5 5.0 5.0 5.1 5.4 6.6 8.0 8.2 8.1 8.4 7.6 7.3 5.3 5.1 5.3 5.3 4.9 5.6 6.4 5.6 5.9 6.8 5.5 6.5 6.5 6.2 5.9 6.4 5.6 5.1 5.0 4.8 4.6 4.5 4.8 4.8 6.0 6.8 6.5 5.7 5.2 5.7 5.4 6.1 6.3
4.5 4.3 6.6 7.2 6.3 5.4 5.4 4.6 4.7 4.8 5.0 5.3 5.6 5.4 5.9 6.4 7.9 8.5 8.4 7.0 6.4 6.0 3.3 6.4 5.8 7.1 6.7 6.6 5.6 5.7 3.2 7.3 7.4 7.5 6.3 6.7 6.2 6.0 5.8 5.9 4.9 4.6 4.7 4.8 5.2 5.6 5.9 6.5 7.0 6.8 6.5 6.3 6.4 6.6
4.7 4.8 5.2 5.7 5.5 5.4 5.7 5.0 5.0 5.5 5.8 6.2 6.1 6.4 6.2 6.9 8.7 8.3 8.9 7.4 6.5 6.6 7.1 6.4 6.2 5.8 6.6 6.4 6.8 6.9 4.2 7.4 5.3 3.0 3.0 3.0 3.0 3.6 6.6 5.9 5.5 5.8 6.0 6.0 5.9 6.2 6.3 7.0 8.0 7.6 8.1 8.4 7.9 7.2